Time,TemperatureF,DewpointF,PressureIn,WindDirection,WindDirectionDegrees,WindSpeedMPH,WindSpeedGustMPH,Humidity,HourlyPrecipIn,Conditions,Clouds,dailyrainin,SoftwareType,DateUTC
2013-10-13 00:12:00,36.0,31.0,29.97,North,-999,-999.0,-999.0,82,-99.99,,,-99.99,,2013-10-13 06:12:00,
2013-10-13 00:42:00,36.0,32.0,29.97,North,-999,-999.0,-999.0,84,-99.99,,,-99.99,,2013-10-13 06:42:00,
2013-10-13 01:11:00,35.0,31.0,29.97,North,-999,-999.0,-999.0,86,-99.99,,,-99.99,,2013-10-13 07:11:00,
2013-10-13 01:42:00,35.0,31.0,29.97,North,-999,-999.0,-999.0,85,-99.99,,,-99.99,,2013-10-13 07:42:00,
2013-10-13 02:22:00,35.0,30.0,29.97,North,-999,-999.0,-999.0,82,-99.99,,,-99.99,,2013-10-13 08:22:00,
2013-10-13 02:42:00,35.0,31.0,29.96,North,-999,-999.0,-999.0,85,-99.99,,,-99.99,,2013-10-13 08:42:00,
2013-10-13 04:43:00,34.0,30.0,29.95,North,-999,-999.0,-999.0,85,-99.99,,,-99.99,,2013-10-13 10:43:00,
2013-10-13 05:21:00,33.0,31.0,29.94,North,-999,-999.0,-999.0,91,-99.99,,,-99.99,,2013-10-13 11:21:00,
2013-10-13 05:42:00,33.0,31.0,29.94,North,-999,-999.0,-999.0,91,-99.99,,,-99.99,,2013-10-13 11:42:00,
2013-10-13 06:12:00,34.0,32.0,29.94,North,-999,-999.0,-999.0,91,-99.99,,,-99.99,,2013-10-13 12:12:00,
2013-10-13 06:42:00,32.0,30.0,29.94,North,-999,-999.0,-999.0,93,-99.99,,,-99.99,,2013-10-13 12:42:00,
2013-10-13 07:12:00,32.0,30.0,29.94,North,-999,-999.0,-999.0,94,-99.99,,,-99.99,,2013-10-13 13:12:00,
2013-10-13 08:42:00,31.0,30.0,29.93,North,-999,-999.0,-999.0,96,-99.99,,,-99.99,,2013-10-13 14:42:00,
2013-10-13 08:52:00,31.0,30.0,29.94,North,-999,-999.0,-999.0,96,-99.99,,,-99.99,,2013-10-13 14:52:00,
2013-10-13 09:01:00,31.0,30.0,29.94,North,-999,-999.0,-999.0,96,-99.99,,,-99.99,,2013-10-13 15:01:00,
2013-10-13 10:42:00,32.0,31.0,29.95,North,-999,-999.0,-999.0,96,-99.99,,,-99.99,,2013-10-13 16:42:00,
2013-10-13 10:54:00,32.0,31.0,29.95,North,-999,-999.0,-999.0,96,-99.99,,,-99.99,,2013-10-13 16:54:00,
2013-10-13 11:03:00,32.0,31.0,29.95,North,-999,-999.0,-999.0,96,-99.99,,,-99.99,,2013-10-13 17:03:00,
2013-10-13 11:43:00,34.0,33.0,29.94,North,-999,-999.0,-999.0,95,-99.99,,,-99.99,,2013-10-13 17:43:00,
2013-10-13 13:11:00,38.0,36.0,29.93,North,-999,-999.0,-999.0,93,-99.99,,,-99.99,,2013-10-13 19:11:00,
2013-10-13 13:21:00,39.0,37.0,29.93,North,-999,-999.0,-999.0,91,-99.99,,,-99.99,,2013-10-13 19:21:00,
2013-10-13 13:31:00,39.0,37.0,29.93,North,-999,-999.0,-999.0,91,-99.99,,,-99.99,,2013-10-13 19:31:00,
2013-10-13 14:11:00,39.0,37.0,29.91,North,-999,-999.0,-999.0,91,-99.99,,,-99.99,,2013-10-13 20:11:00,
2013-10-13 14:43:00,39.0,37.0,29.91,North,-999,-999.0,-999.0,92,-99.99,,,-99.99,,2013-10-13 20:43:00,
2013-10-13 14:52:00,39.0,37.0,29.91,North,-999,-999.0,-999.0,92,-99.99,,,-99.99,,2013-10-13 20:52:00,
2013-10-13 15:02:00,39.0,37.0,29.91,North,-999,-999.0,-999.0,92,-99.99,,,-99.99,,2013-10-13 21:02:00,
2013-10-13 15:44:00,40.0,38.0,29.90,North,-999,-999.0,-999.0,92,-99.99,,,-99.99,,2013-10-13 21:44:00,
2013-10-13 16:24:00,39.0,37.0,29.90,North,-999,-999.0,-999.0,92,-99.99,,,-99.99,,2013-10-13 22:24:00,
2013-10-13 16:32:00,39.0,37.0,29.90,North,-999,-999.0,-999.0,92,-99.99,,,-99.99,,2013-10-13 22:32:00,
2013-10-13 17:42:00,37.0,34.0,29.91,North,-999,-999.0,-999.0,88,-99.99,,,-99.99,,2013-10-13 23:42:00,
2013-10-13 18:21:00,36.0,34.0,29.92,North,-999,-999.0,-999.0,94,-99.99,,,-99.99,,2013-10-14 00:21:00,
2013-10-13 18:42:00,35.0,33.0,29.93,North,-999,-999.0,-999.0,94,-99.99,,,-99.99,,2013-10-14 00:42:00,
2013-10-13 19:11:00,35.0,33.0,29.93,North,-999,-999.0,-999.0,94,-99.99,,,-99.99,,2013-10-14 01:11:00,
2013-10-13 20:42:00,35.0,33.0,29.93,North,-999,-999.0,-999.0,93,-99.99,,,-99.99,,2013-10-14 02:42:00,
2013-10-13 21:44:00,35.0,33.0,29.93,North,-999,-999.0,-999.0,94,-99.99,,,-99.99,,2013-10-14 03:44:00,
2013-10-13 22:43:00,35.0,33.0,29.93,North,-999,-999.0,-999.0,94,-99.99,,,-99.99,,2013-10-14 04:43:00,
2013-10-13 23:12:00,35.0,34.0,29.93,North,-999,-999.0,-999.0,95,-99.99,,,-99.99,,2013-10-14 05:12:00,
2013-10-13 23:43:00,35.0,34.0,29.93,North,-999,-999.0,-999.0,95,-99.99,,,-99.99,,2013-10-14 05:43:00,
2013-10-13 23:52:00,35.0,34.0,29.93,North,-999,-999.0,-999.0,95,-99.99,,,-99.99,,2013-10-14 05:52:00,